Flag for Russia Weather past 2 weeks in Kemerovo, Russia

Now
68 °F

Sunny.


Feels Like: 68 °F
Forecast: 45 / 74 °F
Wind: 20 mph from Northwest

Location: Kemerovo

Current Time: Aug 20, 2014 at 7:43:36 PM

Latest Report: Aug 20, 2014 at 7:00 PM


Visibility: 10 mi

Pressure: 30.04 "Hg

Humidity: 43%

Dew point: 45 °F

Location of KemerovoLocation

Historic Weather in Kemerovo — Graph

°F

Kemerovo temperature yesterday

Maximum temperature yesterday: 84 °F (at 5:00 PM)
Minimum temperature yesterday: 63 °F (at 7:00 AM)
Average temperature yesterday: 73 °F

Past Weeks' High & Low Weather Summary

 TemperatureHumidityPressure
High84 °F (Aug 19, 5:00 PM)100% (Aug 8, 5:00 AM)30.04 "Hg (Aug 8, 5:00 AM)
Low41 °F (Aug 9, 5:00 AM)33% (Aug 20, 6:00 PM)29.53 "Hg (Aug 13, 4:30 PM)
Average67 °F72%29.81 "Hg
* Reported Aug 5 6:00 PM — Aug 20 6:30 PM, Kemerovo, Weather by CustomWeather, © 2014

Note: Actual official high and low records may vary slightly from our data, if they occured in-between our weather recording intervals... More about our weather records

Advertising

Kemerovo weather history for previous 24 hours

 ConditionsComfort  
Time TempWeatherWind HumidityBarometerVisibility
6:30 PM
Aug 20
72 °FSunny.17 mph33%30.01 "Hg10 mi
6:00 PM72 °FSunny.17 mph33%30.01 "Hg10 mi
5:30 PM70 °FSunny.20 mph38%30.01 "Hg10 mi
5:00 PM70 °FScattered clouds.20 mph38%30.01 "HgN/A
4:30 PM70 °FScattered clouds.17 mph50%29.98 "HgN/A
4:00 PM70 °FScattered clouds.20 mph50%29.98 "HgN/A
3:30 PM70 °FPartly sunny.15 mph60%29.95 "HgN/A
3:00 PM70 °FBroken clouds.17 mph50%29.95 "HgN/A
2:30 PM70 °FBroken clouds.20 mph60%29.95 "HgN/A
2:00 PM70 °FBroken clouds.15 mph60%29.92 "HgN/A
1:30 PM68 °FBroken clouds.15 mph69%29.92 "HgN/A
1:00 PM68 °FBroken clouds.15 mph64%29.92 "HgN/A
12:30 PM68 °FBroken clouds.15 mph69%29.92 "HgN/A
12:00 PM68 °FMostly cloudy.15 mph69%29.92 "HgN/A
11:30 AM70 °FMostly cloudy.13 mph69%29.89 "HgN/A
11:00 AM70 °FMostly cloudy.13 mph69%29.89 "HgN/A
10:30 AM68 °FMostly cloudy.13 mph73%29.86 "HgN/A
10:00 AM68 °FMore clouds than sun.15 mph73%29.86 "HgN/A
9:30 AM66 °FMore clouds than sun.10 mph94%29.83 "HgN/A
9:00 AM66 °FMore clouds than sun.8 mph94%29.83 "HgN/A
8:30 AM66 °FMore clouds than sun.8 mph94%29.83 "HgN/A
8:00 AM66 °FSprinkles. More clouds than sun.8 mph94%29.83 "HgN/A
7:30 AM68 °FMore clouds than sun.10 mph88%29.83 "HgN/A
7:00 AM68 °FMore clouds than sun.8 mph88%29.83 "HgN/A
6:30 AM68 °FSprinkles. Mostly cloudy.3 mph83%29.80 "HgN/A
6:00 AM68 °FMostly cloudy.6 mph83%29.80 "HgN/A
5:30 AM68 °FMostly cloudy.6 mph83%29.80 "HgN/A
5:00 AM68 °FClear.6 mph83%29.83 "Hg10 mi
4:30 AM70 °FClear.8 mph78%29.83 "Hg10 mi
4:00 AM70 °FClear.8 mph78%29.83 "Hg10 mi
3:30 AM70 °FClear.6 mph73%29.83 "Hg10 mi
3:00 AM70 °FClear.6 mph73%29.83 "Hg10 mi
2:30 AM72 °FClear.8 mph69%29.83 "Hg10 mi
2:00 AM72 °FClear.8 mph69%29.83 "Hg10 mi
1:30 AM72 °FClear.6 mph73%29.83 "Hg10 mi
1:00 AM72 °FClear.8 mph73%29.83 "Hg10 mi
12:30 AM72 °FClear.8 mph73%29.86 "Hg10 mi
12:00 AM72 °FClear.10 mph73%29.86 "Hg10 mi
11:30 PM
Aug 19
73 °FClear.8 mph69%29.86 "Hg10 mi
11:00 PM73 °FClear.10 mph69%29.86 "Hg10 mi
10:30 PM75 °FClear.13 mph65%29.86 "Hg10 mi
10:00 PM75 °FClear.13 mph65%29.86 "Hg10 mi
9:30 PM77 °FSunny.10 mph61%29.86 "Hg10 mi
9:00 PM77 °FSunny.13 mph61%29.86 "Hg10 mi
8:30 PM79 °FSunny.15 mph58%29.86 "Hg10 mi
8:00 PM79 °FSunny.15 mph58%29.83 "Hg10 mi
7:30 PM81 °FSunny.17 mph54%29.83 "Hg10 mi
7:00 PM81 °FSunny.13 mph54%29.86 "Hg10 mi
Weather by CustomWeather, © 2014

See weather overviewHow to use our weather pages